Location: Dayton
(39.7590°N, 84.1920°W)
Time: 01:28:14
(UTC-04:00)

ATLAS CENTAUR R/B - Visible Passes

Search period start: 30 July 2016 00:00
Search period end: 09 August 2016 00:00
Orbit: 221 x 8340 km, 57.3° (Epoch: 31 March)

Date Brightness Start Highest point End Pass type
(mag) Time Alt. Az. Time Alt. Az. Time Alt. Az.
30 Jul 5.8 02:19:21 11° ESE 02:25:22 18° E 02:36:33 10° NE visible
30 Jul 5.1 05:18:34 16° SW 05:27:22 81° NW 06:03:10 10° NE visible
31 Jul 5.8 02:13:02 12° ESE 02:18:35 18° E 02:29:55 10° NE visible
31 Jul 5.0 05:12:13 18° SW 05:20:43 80° NW 05:56:21 10° NE visible
01 Aug 5.8 02:06:28 13° ESE 02:11:35 18° E 02:23:01 10° NE visible
01 Aug 5.0 05:05:38 20° SW 05:13:49 79° NW 05:49:17 10° NE visible
02 Aug 5.7 01:59:41 14° ESE 02:04:23 19° E 02:15:52 10° NE visible
02 Aug 5.0 04:58:49 22° SW 05:06:43 78° NW 05:41:59 10° NE visible
03 Aug 5.7 01:52:41 15° ESE 01:56:58 19° E 02:08:27 10° NE visible
03 Aug 4.9 04:51:48 24° SW 04:59:22 78° NW 05:34:24 10° NE visible
04 Aug 5.7 01:45:27 16° ESE 01:49:20 19° E 02:00:47 10° NE visible
04 Aug 4.9 04:44:32 26° WSW 04:51:48 77° NW 05:26:35 10° NE visible
05 Aug 5.7 01:37:59 16° ESE 01:41:31 19° E 01:52:52 10° NE visible
05 Aug 4.9 04:37:02 27° WSW 04:43:59 77° NW 05:18:31 10° NE visible
06 Aug 5.7 01:30:18 17° ESE 01:33:28 19° E 01:44:42 10° NE visible
06 Aug 4.8 04:29:20 29° WSW 04:35:58 76° NW 05:10:11 10° NE visible
07 Aug 5.7 01:22:24 17° ESE 01:25:13 19° E 01:36:17 10° NE visible
07 Aug 4.8 04:21:24 32° WSW 04:27:42 76° NW 05:01:37 10° NE visible
08 Aug 5.7 01:14:16 17° ESE 01:16:44 19° E 01:27:37 10° NE visible
08 Aug 4.8 04:13:14 34° WSW 04:19:13 75° NW 04:52:47 10° NE visible
